Shungnak AP, Shungnak, AK, AK

7:14 AM AKST on December 10, 2019 (GMT -0900)
Shungnak AP, Shungnak, AK

Weather History for PAGH - October, 2019

Change the Weather History Date:

Saturday, October 5, 2019

  Actual Average (WUND) Record (WUND)
Temperature  
Mean Temperature 30 °F -  
Max Temperature 36 °F - - (-1)
Min Temperature 25 °F - - (-1)
Degree Days  
Heating Degree Days 34    
Moisture  
Dew Point 30 °F    
Average Humidity 93    
Maximum Humidity 100    
Minimum Humidity 73    
Precipitation  
Precipitation 0.08 in - - ()
Sea Level Pressure  
Sea Level Pressure 29.54 in    
Wind  
Wind Speed 7 mph (ESE)    
Max Wind Speed 10 mph    
Max Gust Speed -    
Visibility 4 miles    
Events Fog , Rain , Snow    
Averages and records for this station are not official NWS values.
T = Trace of Precipitation, MM = Missing Value Source: NWS Daily Summary

Daily Weather History Graph

Daily Weather History Graph

Search for Another Location

Airport or City:

Astronomy

Oct. 05, 2019 Rise Set
Actual Time 8:53 AM AKDT 7:38 PM AKDT
Civil Twilight 8:00 AM AKDT 8:31 PM AKDT
Nautical Twilight 6:58 AM AKDT 9:33 PM AKDT
Astronomical Twilight 5:51 AM AKDT 10:39 PM AKDT
Moon 8:08 PM AKDT (10/5) 9:34 PM AKDT (10/5)
Length of Visible Light 12h 30m
Length of Day
10h 44m
First Quarter, 51% of the Moon is Illuminated
Oct 5
First Quarter
Oct 13
Full
Oct 21
Last Quarter
Oct 27
New
Nov 4
First Quarter

Hourly Weather History & Observations

Time (AKDT) Temp. Windchill Dew Point Humidity Pressure Visibility Wind Dir Wind Speed Gust Speed Precip Events Conditions
12:56 AM 32.0 °F 23.6 °F 24.1 °F 73% 29.55 in 10.0 mi South 10.4 mph - N/A   Overcast
1:56 AM 32.0 °F 24.8 °F 24.1 °F 73% 29.56 in 10.0 mi SE 8.1 mph - N/A   Overcast
2:56 AM 30.9 °F 24.3 °F 25.0 °F 79% 29.56 in 10.0 mi SE 6.9 mph - N/A   Overcast
3:56 AM 30.9 °F 24.3 °F 26.1 °F 82% 29.55 in 10.0 mi East 6.9 mph - 0.00 in   Overcast
4:49 AM 30.2 °F 23.4 °F 26.6 °F 86% 29.53 in 3.0 mi ESE 6.9 mph - 0.00 in Snow Light Snow
4:56 AM 30.9 °F 24.3 °F 27.0 °F 85% 29.55 in 3.0 mi SE 6.9 mph - 0.00 in Snow Light Snow
5:56 AM 30.0 °F 23.2 °F 28.0 °F 92% 29.54 in 9.0 mi East 6.9 mph - 0.00 in Snow Light Snow
6:56 AM 30.9 °F 22.2 °F 28.0 °F 89% 29.52 in 7.0 mi SE 10.4 mph - 0.00 in Snow Light Snow
7:12 AM 30.2 °F 21.3 °F 28.4 °F 93% 29.50 in 2.5 mi SE 10.4 mph - 0.00 in Snow Light Snow
7:20 AM 30.2 °F 21.9 °F 28.4 °F 93% 29.49 in 3.0 mi SE 9.2 mph - 0.00 in Snow Light Snow
7:53 AM 30.2 °F 21.9 °F 30.2 °F 100% 29.49 in 3.0 mi SE 9.2 mph - 0.00 in Snow Light Snow
7:56 AM 30.9 °F 22.8 °F 30.0 °F 96% 29.51 in 2.5 mi SE 9.2 mph - 0.00 in Snow Light Snow
8:09 AM 30.2 °F 21.9 °F 30.2 °F 100% 29.49 in 4.0 mi SE 9.2 mph - 0.00 in Snow Light Snow
8:56 AM 30.9 °F 23.5 °F 30.0 °F 96% 29.51 in 3.0 mi SE 8.1 mph - 0.00 in Snow Light Snow
9:00 AM 30.2 °F 23.4 °F 30.2 °F 100% 29.49 in 1.5 mi SSE 6.9 mph - 0.00 in Snow Light Snow
9:08 AM 30.2 °F 22.6 °F 30.2 °F 100% 29.49 in 1.0 mi SSE 8.1 mph - 0.00 in Snow Light Snow
9:22 AM 30.2 °F 23.4 °F 30.2 °F 100% 29.49 in 0.8 mi SE 6.9 mph - 0.00 in Snow Light Snow
9:43 AM 30.2 °F 22.6 °F 30.2 °F 100% 29.49 in 1.0 mi SE 8.1 mph - 0.00 in Snow Light Snow
9:54 AM 30.2 °F 23.4 °F 30.2 °F 100% 29.49 in 2.0 mi SE 6.9 mph - 0.00 in Snow Light Snow
9:56 AM 30.9 °F 25.2 °F 30.0 °F 96% 29.51 in 2.0 mi SE 5.8 mph - 0.00 in Snow Light Snow
10:08 AM 30.2 °F 23.4 °F 30.2 °F 100% 29.49 in 5.0 mi SE 6.9 mph - 0.00 in Snow Light Snow
10:56 AM 32.0 °F 27.5 °F 30.9 °F 96% 29.52 in 3.0 mi SE 4.6 mph - 0.01 in Snow Light Snow
11:16 AM 32.0 °F 27.5 °F 30.2 °F 93% 29.50 in 1.8 mi SE 4.6 mph - 0.00 in Snow Light Snow
11:43 AM 33.8 °F 29.6 °F 30.2 °F 87% 29.50 in 2.5 mi SE 4.6 mph - 0.00 in Snow Light Snow
11:54 AM 33.8 °F 28.6 °F 30.2 °F 87% 29.50 in 1.2 mi SE 5.8 mph - 0.00 in Snow Light Snow
11:56 AM 33.1 °F 28.7 °F 30.9 °F 92% 29.52 in 1.2 mi SE 4.6 mph - 0.00 in Snow Light Snow
12:05 PM 33.8 °F 29.6 °F 30.2 °F 87% 29.50 in 1.0 mi SE 4.6 mph - 0.01 in Snow Light Snow
12:22 PM 33.8 °F 29.6 °F 30.2 °F 87% 29.51 in 0.8 mi SE 4.6 mph - 0.01 in Snow Light Snow
12:36 PM 33.8 °F 30.8 °F 30.2 °F 87% 29.51 in 1.2 mi SSE 3.5 mph - 0.01 in Snow Light Snow
12:48 PM 33.8 °F 30.8 °F 30.2 °F 87% 29.51 in 1.0 mi SE 3.5 mph - 0.02 in Snow Light Snow
12:56 PM 33.1 °F 30.0 °F 30.9 °F 92% 29.53 in 0.8 mi SE 3.5 mph - 0.02 in Snow Light Snow
1:24 PM 33.8 °F - 30.2 °F 87% 29.52 in 0.8 mi Calm Calm - 0.02 in Snow Light Snow
1:52 PM 33.8 °F 29.6 °F 30.2 °F 87% 29.52 in 1.2 mi SSE 4.6 mph - 0.03 in Snow Light Snow
1:54 PM 33.8 °F 29.6 °F 30.2 °F 87% 29.52 in 1.0 mi SSE 4.6 mph - 0.03 in Snow Light Snow
1:56 PM 33.1 °F 27.7 °F 30.9 °F 92% 29.54 in 1.2 mi SSE 5.8 mph - 0.03 in Snow Light Snow
1:59 PM 33.8 °F 29.6 °F 30.2 °F 87% 29.52 in 1.0 mi SSE 4.6 mph - 0.00 in Snow Light Snow
2:06 PM 33.8 °F 29.6 °F 32.0 °F 93% 29.52 in 1.5 mi SSE 4.6 mph - 0.01 in Snow Light Snow
2:29 PM 33.8 °F 30.8 °F 32.0 °F 93% 29.52 in 2.0 mi ESE 3.5 mph - 0.01 in Snow Light Snow
2:56 PM 33.1 °F 30.0 °F 32.0 °F 96% 29.55 in 1.8 mi East 3.5 mph - 0.01 in Snow Light Snow
3:03 PM 33.8 °F 30.8 °F 32.0 °F 93% 29.53 in 2.0 mi East 3.5 mph - 0.00 in Snow Light Snow
3:07 PM 33.8 °F 30.8 °F 32.0 °F 93% 29.53 in 3.0 mi ESE 3.5 mph - 0.00 in Snow Light Snow
3:15 PM 33.8 °F - 32.0 °F 93% 29.53 in 5.0 mi Calm Calm - 0.00 in Snow Light Snow
3:22 PM 33.8 °F 30.8 °F 32.0 °F 93% 29.53 in 5.0 mi East 3.5 mph - 0.00 in Snow Light Snow
3:28 PM 33.8 °F 29.6 °F 32.0 °F 93% 29.53 in 1.8 mi East 4.6 mph - 0.00 in Snow Light Snow
3:35 PM 33.8 °F 30.8 °F 32.0 °F 93% 29.53 in 1.0 mi ESE 3.5 mph - 0.00 in Snow Light Snow
3:37 PM 33.8 °F 29.6 °F 32.0 °F 93% 29.53 in 1.2 mi ESE 4.6 mph - 0.00 in Snow Light Snow
3:45 PM 33.8 °F - 32.0 °F 93% 29.53 in 3.0 mi Calm Calm - 0.01 in Snow Light Snow
3:48 PM 33.8 °F - 32.0 °F 93% 29.53 in 1.8 mi Calm Calm - 0.01 in Rain Light Rain
3:56 PM 35.1 °F 32.2 °F 34.0 °F 96% 29.55 in 1.2 mi East 3.5 mph - 0.01 in Snow Light Snow
4:37 PM 35.6 °F - 33.8 °F 93% 29.53 in 10.0 mi Calm Calm - 0.00 in   Mostly Cloudy
4:56 PM 34.0 °F 31.0 °F 32.0 °F 92% 29.55 in 10.0 mi East 3.5 mph - 0.00 in   Overcast
5:03 PM 33.8 °F 29.6 °F 32.0 °F 93% 29.53 in 10.0 mi ESE 4.6 mph - 0.00 in Rain Light Rain
5:40 PM 33.8 °F 28.6 °F 32.0 °F 93% 29.54 in 10.0 mi ESE 5.8 mph - 0.00 in Rain Light Rain
5:56 PM 33.1 °F 28.7 °F 30.9 °F 92% 29.57 in 10.0 mi East 4.6 mph - 0.00 in Rain Light Rain
6:04 PM 32.0 °F 27.5 °F 30.2 °F 93% 29.54 in 10.0 mi ESE 4.6 mph - 0.00 in Rain Light Rain
6:27 PM 32.0 °F 25.6 °F 30.2 °F 93% 29.55 in 2.5 mi East 6.9 mph - 0.00 in   Overcast
6:37 PM 32.0 °F 25.6 °F 30.2 °F 93% 29.55 in 1.0 mi ESE 6.9 mph - 0.00 in   Overcast
6:40 PM 32.0 °F 25.6 °F 30.2 °F 93% 29.55 in 0.5 mi ESE 6.9 mph - 0.00 in Fog Fog
6:45 PM 32.0 °F 25.6 °F 30.2 °F 93% 29.55 in 0.2 mi ESE 6.9 mph - 0.00 in Fog Fog
6:56 PM 32.0 °F 25.6 °F 30.9 °F 96% 29.57 in 0.5 mi East 6.9 mph - 0.00 in Fog Fog
7:01 PM 32.0 °F 26.4 °F 30.2 °F 93% 29.55 in 1.0 mi East 5.8 mph - N/A   Overcast
7:04 PM 32.0 °F 27.5 °F 30.2 °F 93% 29.55 in 2.0 mi East 4.6 mph - N/A   Overcast
7:08 PM 32.0 °F 26.4 °F 30.2 °F 93% 29.55 in 0.8 mi East 5.8 mph - N/A   Overcast
7:12 PM 32.0 °F 27.5 °F 30.2 °F 93% 29.55 in 0.2 mi East 4.6 mph - N/A Fog Fog
7:19 PM 30.2 °F 24.3 °F 30.2 °F 100% 29.55 in 0.8 mi ENE 5.8 mph - N/A   Mostly Cloudy
7:22 PM 30.2 °F 25.4 °F 30.2 °F 100% 29.55 in 2.0 mi ENE 4.6 mph - N/A   Mostly Cloudy
7:43 PM 30.2 °F 22.6 °F 30.2 °F 100% 29.55 in 1.8 mi East 8.1 mph - N/A   Overcast
7:46 PM 30.2 °F 22.6 °F 30.2 °F 100% 29.55 in 0.5 mi East 8.1 mph - N/A Fog Light Freezing Fog
7:54 PM 30.2 °F 24.3 °F 30.2 °F 100% 29.55 in 0.2 mi ESE 5.8 mph - N/A Fog Light Freezing Fog
7:56 PM 30.9 °F 25.2 °F 30.0 °F 96% 29.57 in 0.2 mi ESE 5.8 mph - N/A Fog Light Freezing Fog
8:11 PM 30.2 °F 23.4 °F 28.4 °F 93% 29.55 in 0.8 mi ESE 6.9 mph - N/A   Mostly Cloudy
8:13 PM 30.2 °F 23.4 °F 28.4 °F 93% 29.55 in 1.2 mi ESE 6.9 mph - N/A   Mostly Cloudy
8:15 PM 30.2 °F 23.4 °F 28.4 °F 93% 29.55 in 3.0 mi ESE 6.9 mph - N/A   Mostly Cloudy
8:24 PM 30.2 °F 23.4 °F 30.2 °F 100% 29.55 in 10.0 mi East 6.9 mph - N/A   Scattered Clouds
8:38 PM 30.2 °F 23.4 °F 30.2 °F 100% 29.56 in 10.0 mi ESE 6.9 mph - N/A   Mostly Cloudy
8:47 PM 30.2 °F 22.6 °F 30.2 °F 100% 29.56 in 10.0 mi East 8.1 mph - N/A   Mostly Cloudy
8:56 PM 30.0 °F 22.4 °F 30.0 °F 100% 29.58 in 10.0 mi East 8.1 mph - N/A   Mostly Cloudy
9:23 PM 30.2 °F 26.7 °F 28.4 °F 93% 29.57 in 1.5 mi NE 3.5 mph - N/A   Mostly Cloudy
9:36 PM 26.6 °F 19.1 °F 26.6 °F 100% 29.57 in 1.2 mi NE 6.9 mph - N/A   Partly Cloudy
9:39 PM 26.6 °F 18.2 °F 24.8 °F 93% 29.57 in 3.0 mi ENE 8.1 mph - N/A   Partly Cloudy
9:56 PM 26.1 °F 20.5 °F 25.0 °F 96% 29.60 in 10.0 mi ENE 4.6 mph - N/A   Clear
10:56 PM 26.1 °F 19.4 °F 25.0 °F 96% 29.61 in 10.0 mi East 5.8 mph - N/A   Clear
11:56 PM 25.0 °F - 24.1 °F 96% 29.64 in 10.0 mi Calm Calm - N/A   Clear